Meadville, PA

3:26 PM EDT on April 25, 2017 (GMT -0400)
Port Meadville

Weather History for KGKJ - January, 2014

Change the Weather History Date:

Friday, January 24, 2014

  Actual Average Record
Temperature  
Mean Temperature 6 °F -  
Max Temperature 15 °F 35 °F 57 °F (1969)
Min Temperature -2 °F 15 °F -18 °F (1963)
Degree Days  
Heating Degree Days 59    
Moisture  
Dew Point -3 °F    
Average Humidity 74    
Maximum Humidity 85    
Minimum Humidity 49    
Precipitation  
Precipitation 0.00 in - - ()
Sea Level Pressure  
Sea Level Pressure 30.25 in    
Wind  
Wind Speed 8 mph (SSW)    
Max Wind Speed 24 mph    
Max Gust Speed 34 mph    
Visibility 6 miles    
Events Snow    
Averages and records for this station are not official NWS values.
T = Trace of Precipitation, MM = Missing Value Source: NWS Daily Summary

Daily Weather History Graph

Daily Weather History Graph

Search for Another Location

Airport or City:

Trip Planner

Search our weather history database for the weather conditions in past years. The results will help you decide how hot, cold, wet, or windy it might be!

Date:

Astronomy

Jan. 24, 2014 Rise Set
Actual Time 7:39 AM EST 5:26 PM EST
Civil Twilight 7:09 AM EST 5:56 PM EST
Nautical Twilight 6:36 AM EST 6:30 PM EST
Astronomical Twilight 6:03 AM EST 7:03 PM EST
Moon 1:04 AM EST (1/24) 11:45 AM EST (1/24)
Length of Visible Light 10h 46m
Length of Day
9h 46m
Last Quarter, 45% of the Moon is Illuminated
Jan 24
Last Quarter
Jan 30
New
Feb 6
First Quarter
Feb 14
Full
Feb 22
Last Quarter

Hourly Weather History & Observations

Time (EST) Temp. Windchill Dew Point Humidity Pressure Visibility Wind Dir Wind Speed Gust Speed Precip Events Conditions
12:12 AM 3.2 °F -6.2 °F -0.4 °F 85% 30.33 in 3.0 mi WSW 4.6 mph - 0.00 in Snow Light Snow
12:23 AM 3.2 °F -6.2 °F -0.4 °F 85% 30.33 in 2.0 mi WSW 4.6 mph - 0.00 in Snow Light Snow
12:30 AM 3.2 °F - -0.4 °F 85% 30.33 in 1.5 mi Calm Calm - 0.00 in Snow Light Snow
12:53 AM 1.9 °F -7.6 °F -2.0 °F 83% 30.42 in 1.2 mi WSW 4.6 mph - 0.00 in Snow Light Snow
1:04 AM 1.4 °F -6.2 °F -2.2 °F 85% 30.32 in 2.0 mi SW 3.5 mph - 0.00 in Snow Light Snow
1:15 AM 1.4 °F -8.3 °F -2.2 °F 85% 30.32 in 6.0 mi SW 4.6 mph - 0.00 in   Overcast
1:33 AM 1.4 °F -8.3 °F -4.0 °F 78% 30.32 in 10.0 mi SW 4.6 mph - 0.00 in   Scattered Clouds
1:53 AM -0.0 °F -7.9 °F -4.0 °F 83% 30.42 in 10.0 mi SW 3.5 mph - 0.00 in   Clear
2:12 AM -0.4 °F -12.0 °F -4.0 °F 85% 30.32 in 10.0 mi SW 5.8 mph - N/A   Scattered Clouds
2:21 AM -0.4 °F -12.0 °F -4.0 °F 85% 30.32 in 10.0 mi SW 5.8 mph - N/A   Mostly Cloudy
2:46 AM -0.4 °F -10.4 °F -4.0 °F 85% 30.33 in 2.5 mi SW 4.6 mph - 0.00 in Snow Light Snow
2:53 AM -0.0 °F -11.6 °F -4.0 °F 83% 30.43 in 3.0 mi SW 5.8 mph - 0.00 in Snow Light Snow
3:04 AM -0.4 °F -12.0 °F -5.8 °F 78% 30.34 in 6.0 mi SW 5.8 mph - 0.00 in Snow Light Snow
3:15 AM -0.4 °F -12.0 °F -5.8 °F 78% 30.34 in 10.0 mi SW 5.8 mph - 0.00 in   Overcast
3:30 AM -0.4 °F -13.4 °F -5.8 °F 78% 30.34 in 10.0 mi SW 6.9 mph - 0.00 in   Scattered Clouds
3:37 AM -0.4 °F -10.4 °F -5.8 °F 78% 30.34 in 10.0 mi SW 4.6 mph - 0.00 in   Mostly Cloudy
3:53 AM -0.0 °F -11.6 °F -5.1 °F 79% 30.44 in 6.0 mi WSW 5.8 mph - 0.00 in Snow Light Snow
4:00 AM -0.4 °F -13.4 °F -5.8 °F 78% 30.34 in 6.0 mi SW 6.9 mph - 0.00 in   Overcast
4:53 AM -0.9 °F -12.7 °F -6.0 °F 79% 30.44 in 8.0 mi SW 5.8 mph - 0.00 in   Overcast
5:25 AM -2.2 °F -16.8 °F -5.8 °F 85% 30.33 in 9.0 mi SSW 8.1 mph - N/A   Mostly Cloudy
5:53 AM -2.0 °F -17.7 °F -6.0 °F 83% 30.43 in 10.0 mi SSW 9.2 mph - N/A   Mostly Cloudy
6:01 AM -2.2 °F -16.8 °F -7.6 °F 78% 30.33 in 8.0 mi SSW 8.1 mph - N/A   Mostly Cloudy
6:53 AM -2.0 °F -17.7 °F -6.0 °F 83% 30.43 in 6.0 mi SSW 9.2 mph - N/A   Overcast
7:53 AM -2.0 °F -18.7 °F -6.0 °F 83% 30.42 in 6.0 mi South 10.4 mph - 0.00 in   Overcast
8:35 AM -0.4 °F -15.7 °F -5.8 °F 78% 30.30 in 2.5 mi SSW 9.2 mph - N/A   Overcast
8:51 AM -0.4 °F -15.7 °F -5.8 °F 78% 30.29 in 3.0 mi SSW 9.2 mph - N/A   Overcast
8:53 AM -0.9 °F -18.3 °F -5.1 °F 83% 30.40 in 3.0 mi SSW 11.5 mph - N/A   Overcast
9:22 AM 1.4 °F -14.5 °F -4.0 °F 78% 30.29 in 5.0 mi SSW 10.4 mph 18.4 mph N/A   Haze
9:46 AM 1.4 °F -15.3 °F -4.0 °F 78% 30.28 in 2.0 mi SSW 11.5 mph 18.4 mph 0.00 in Snow Light Snow
9:53 AM 1.0 °F -14.9 °F -4.0 °F 79% 30.39 in 1.8 mi SSW 10.4 mph 18.4 mph 0.00 in Snow Light Snow
10:01 AM 1.4 °F -14.5 °F -2.2 °F 85% 30.28 in 2.5 mi SSW 10.4 mph 19.6 mph 0.00 in   Overcast
10:18 AM 1.4 °F -15.3 °F -2.2 °F 85% 30.27 in 3.0 mi SSW 11.5 mph 17.3 mph 0.00 in   Haze
10:53 AM 3.0 °F -14.1 °F -0.9 °F 84% 30.36 in 5.0 mi SSW 12.7 mph 18.4 mph 0.00 in   Overcast
11:36 AM 5.0 °F -10.8 °F -0.4 °F 78% 30.22 in 10.0 mi SSW 11.5 mph 20.7 mph N/A   Scattered Clouds
11:53 AM 6.1 °F -11.6 °F -0.9 °F 73% 30.30 in 10.0 mi SSW 15.0 mph 27.6 mph 0.00 in   Partly Cloudy
12:53 PM 10.0 °F -6.5 °F -0.9 °F 61% 30.23 in 10.0 mi SSW 15.0 mph 29.9 mph 0.00 in   Clear
1:53 PM 10.0 °F -7.6 °F -0.9 °F 61% 30.18 in 10.0 mi SW 17.3 mph 27.6 mph 0.00 in   Clear
2:53 PM 10.0 °F -10.4 °F -2.0 °F 58% 30.13 in 4.0 mi SSW 24.2 mph 34.5 mph 0.00 in Snow Blowing Snow
3:53 PM 10.0 °F -8.1 °F -2.0 °F 58% 30.10 in 2.5 mi SSW 18.4 mph 33.4 mph 0.00 in   Mostly Cloudy
4:02 PM 10.4 °F -8.6 °F -2.2 °F 57% 30.00 in 4.0 mi SSW 20.7 mph 27.6 mph 0.00 in Snow Blowing Snow
4:53 PM 10.9 °F -4.1 °F -2.0 °F 56% 30.05 in 8.0 mi South 12.7 mph 25.3 mph 0.00 in   Overcast
5:53 PM 10.0 °F -8.1 °F -0.9 °F 61% 30.01 in 8.0 mi South 18.4 mph 28.8 mph N/A   Scattered Clouds
6:53 PM 10.9 °F -5.9 °F -2.0 °F 56% 29.97 in 7.0 mi South 16.1 mph 27.6 mph N/A   Partly Cloudy
7:53 PM 10.9 °F -5.9 °F -2.9 °F 54% 29.94 in 9.0 mi South 16.1 mph 27.6 mph N/A   Scattered Clouds
8:53 PM 12.0 °F -4.5 °F -2.9 °F 51% 29.90 in 10.0 mi SSW 16.1 mph 24.2 mph N/A   Overcast
9:53 PM 12.9 °F -1.6 °F -2.0 °F 51% 29.85 in 10.0 mi South 12.7 mph 25.3 mph N/A   Overcast
10:53 PM 14.0 °F -2.0 °F -2.0 °F 49% 29.81 in 10.0 mi South 16.1 mph 25.3 mph N/A   Overcast
11:53 PM 15.1 °F -0.6 °F -0.9 °F 49% 29.75 in 10.0 mi SSW 16.1 mph 24.2 mph N/A   Overcast